Weather History for KBUR - February, 2012

Change the Weather History Date:

Monday, February 6, 2012

  Actual Average Record
Temperature  
Mean Temperature 57 °F 55 °F  
Max Temperature 69 °F 68 °F 86 °F (1953)
Min Temperature 45 °F 43 °F 29 °F (1989)
Degree Days  
Heating Degree Days 8 10  
Month to date heating degree days 49 60  
Since 1 July heating degree days 873 943  
Cooling Degree Days 0 0  
Month to date cooling degree days 0 0  
Year to date cooling degree days 8 2  
Growing Degree Days 7 (Base 50)    
Moisture  
Dew Point 28 °F    
Average Humidity 33    
Maximum Humidity 49    
Minimum Humidity 17    
Precipitation  
Precipitation 0.00 in 0.16 in 1.92 in (1969)
Month to date precipitation 0.00 0.86  
Year to date precipitation 0.85 4.39  
Since 1 July precipitation 4.14  
Sea Level Pressure  
Sea Level Pressure 29.95 in    
Wind  
Wind Speed 2 mph (South)    
Max Wind Speed 9 mph    
Max Gust Speed 15 mph    
Visibility 10 miles    
Events      
T = Trace of Precipitation, MM = Missing Value Source: NWS Daily Summary

Daily Weather History Graph

Daily Weather History Graph

Search for Another Location

Airport or City:

Trip Planner

Search our weather history database for the weather conditions in past years. The results will help you decide how hot, cold, wet, or windy it might be!

Date:

Astronomy

Feb. 06, 2012 Rise Set
Actual Time 6:47 AM PST 5:28 PM PST
Civil Twilight 6:21 AM PST 5:54 PM PST
Nautical Twilight 5:51 AM PST 6:24 PM PST
Astronomical Twilight 5:22 AM PST 6:53 PM PST
Moon 4:37 PM PST (2/6) 5:40 AM PST (2/6)
Length of Visible Light 11h 33m
Length of Day
10h 41m
Waxing Gibbous, 99% of the Moon is Illuminated
Feb 6
Waxing Gibbous
Feb 7
Full
Feb 14
Last Quarter
Feb 21
New
Feb 29
First Quarter

Hourly Weather History & Observations

Time (PST) Temp. Dew Point Humidity Pressure Visibility Wind Dir Wind Speed Gust Speed Precip Events Conditions
12:53 AM 50.0 °F 28.9 °F 44% 30.00 in 10.0 mi North 4.6 mph - N/A   Clear
1:53 AM 50.0 °F 26.1 °F 39% 29.99 in 10.0 mi Calm Calm - N/A   Clear
2:53 AM 46.9 °F 28.0 °F 48% 29.98 in 10.0 mi Calm Calm - N/A   Clear
3:53 AM 48.0 °F 26.1 °F 42% 29.97 in 10.0 mi Calm Calm - N/A   Clear
4:53 AM 46.9 °F 26.1 °F 44% 29.96 in 10.0 mi Calm Calm - N/A   Clear
5:53 AM 46.9 °F 27.0 °F 46% 29.97 in 10.0 mi Calm Calm - N/A   Clear
6:53 AM 46.9 °F 28.9 °F 50% 29.99 in 10.0 mi Calm Calm - N/A   Clear
7:53 AM 50.0 °F 28.0 °F 43% 30.00 in 10.0 mi SW 3.5 mph - N/A   Clear
8:53 AM 54.0 °F 28.9 °F 38% 30.01 in 10.0 mi SW 3.5 mph - N/A   Clear
9:53 AM 59.0 °F 32.0 °F 36% 30.01 in 10.0 mi Variable 3.5 mph - N/A   Clear
10:53 AM 64.9 °F 21.9 °F 19% 30.00 in 10.0 mi Calm Calm - N/A   Clear
11:53 AM 66.0 °F 21.9 °F 19% 29.98 in 10.0 mi South 4.6 mph - N/A   Clear
12:53 PM 66.0 °F 24.1 °F 20% 29.96 in 10.0 mi SSE 4.6 mph - N/A   Clear
1:53 PM 68.0 °F 23.0 °F 18% 29.94 in 10.0 mi Variable 4.6 mph - N/A   Clear
2:53 PM 68.0 °F 24.1 °F 19% 29.93 in 10.0 mi South 5.8 mph - N/A   Clear
3:53 PM 68.0 °F 25.0 °F 20% 29.91 in 10.0 mi ESE 6.9 mph - N/A   Clear
4:53 PM 68.0 °F 23.0 °F 18% 29.90 in 10.0 mi Variable 3.5 mph - N/A   Clear
5:53 PM 64.9 °F 28.0 °F 25% 29.91 in 10.0 mi Calm Calm - N/A   Clear
6:53 PM 62.1 °F 28.0 °F 28% 29.90 in 10.0 mi Variable 3.5 mph - N/A   Clear
7:53 PM 61.0 °F 30.0 °F 31% 29.90 in 10.0 mi Calm Calm - N/A   Clear
8:53 PM 61.0 °F 30.0 °F 31% 29.90 in 10.0 mi Calm Calm - N/A   Clear
9:53 PM 60.1 °F 33.1 °F 36% 29.91 in 10.0 mi Calm Calm - N/A   Clear
10:53 PM 57.9 °F 34.0 °F 41% 29.91 in 10.0 mi Calm Calm - N/A   Clear
11:53 PM 57.0 °F 34.0 °F 42% 29.91 in 10.0 mi Calm Calm - N/A   Clear